Weather Roundup
Issued by NWS Chicago, IL

Home | Current Version | Previous Version | Graphics & Text | Print | Product List | Glossary On
Versions: 1 2 3 4 5 6 7 8 9 10 11 12 13 14 15 16 17 18 19 20 21 22 23 24 25 26 27 28 29 30 31 32 33 34 35 36 37 38 39 40 41 42 43 44 45 46 47 48 49 50
000
NZUS59 KLOT 311503
HRRLOT

CHICAGO AREA WEATHER ROUNDUP
NATIONAL WEATHER SERVICE CHICAGO/ROMEOVILLE IL
1000 AM CDT WED AUG 31 2016

NOTE: "FAIR" INDICATES FEW OR NO CLOUDS BELOW 12,000 FEET WITH NO
SIGNIFICANT WEATHER AND/OR OBSTRUCTIONS TO VISIBILITY.

* THESE STATIONS ARE NOT UNDER NWS QUALITY CONTROL. THEY ALSO MAY NOT
  REPORT WEATHER SUCH AS PRECIPITATION OR FOG.

ILZ005-006-012>014-019>023-311600-
NORTHEAST ILLINOIS

CITY           SKY/WX    TMP DP  RH WIND       PRES   REMARKS
OHARE          PTSUNNY   73  62  68 N13G21    30.06S
MIDWAY         PTSUNNY   75  62  64 N15       30.06R
AURORA         MOSUNNY   73  63  70 N8        30.07F
LANSING*       CLOUDY    73  69  88 CALM      30.06R
JOLIET*        MOSUNNY   76  67  75 NE7       30.06S
WAUKEGAN       MOSUNNY   72  61  68 N12G20    30.08R
DUPAGE AIRPORT SUNNY     73  62  68 N12       30.07S
WHEELING       SUNNY     74  61  63 N15       30.08S
KANKAKEE*      CLOUDY    76  70  83 N5        30.06R
MORRIS*        CLOUDY    74  67  79 CALM      30.06R
LEWIS AIRPORT* SUNNY     74  67  81 NE8       30.06F
NORTHERLY ISL    N/A     71  63  75 N12         N/A
$$

WIZ051-052-058>065-066-070>072-311600-
SOUTHEAST WISCONSIN

CITY           SKY/WX    TMP DP  RH WIND       PRES   REMARKS
MILWAUKEE      MOSUNNY   71  59  65 N13       30.10R
KENOSHA*       MOSUNNY   70  61  73 N10       30.10R
RACINE*        CLOUDY    69  60  73 N13       30.11R
WAUKESHA       SUNNY     66  57  72 N9        30.13S
$$

INZ001>003-010>013-019-020-311600-
NORTHWEST INDIANA

CITY           SKY/WX    TMP DP  RH WIND       PRES   REMARKS
GARY*          CLOUDY    75  70  83 NW14      30.05S
MICHIGAN CITY* NOT AVBL
RENSSELAER*    NOT AVBL
VALPARAISO     CLOUDY    76  70  82 NW7       30.04S
$$

LMZ740>746-311600-
SOUTHERN LAKE MICHIGAN

STATION/POSITION TIME  SKY/WX   TEMP WIND        PRES    VSBY
                                AIR  DIR/SP/G
                 (UTC)          (F)  (DEG/KT/KT) (MB)    (MI)
HARRISON CRIB    1400            69  340/ 21/ 22   N/A
BURNHAM HARBOR   1500            72  340/ 11/ 15   N/A
CALUMET HARBOR   1400            70  330/ 11/ 17 1017.1S
BURNS HARBOR     1405            73  350/ 11/ 13 1017.6S
MICHIGAN CITY    1400            73  330/  8/  9   N/A
$$

ABBREVIATIONS USED IN REMARKS
   TC - TEMPERATURE IN CELSIUS
  WCI - WIND CHILL INDEX
   HX - HEAT INDEX
  VSB - VISIBILITY
$$



USA.gov is the U.S. government's official web portal to all federal, state and local government web resources and services.